Location: Brahman Valley
(40.6513°N, 111.8855°W)
Time: 21:53:43
(UTC+00:00)

Vanguard 2 - Pass Details

Date: 18 May 2021
Orbit: 552 x 2937 km, 32.9° (Epoch: 14 June)

Event Time Altitude Azimuth Distance (km) Brightness Sun altitude
Rises 15:32:58 0° 272° (W) 4,874 11.1 36.9°
Reaches altitude 10° 15:35:51 10° 267° (W) 4,166 10.9 37.5°
Maximum altitude 15:47:20 51° 196° (SSW) 2,905 10.9 39.6°
Drops below altitude 10° 16:03:35 10° 128° (SE) 5,734 12.9 42.7°
Sets 16:08:23 0° 124° (SE) 6,783 13.0 43.6°
